Le nostre stazioni meteo in Italia

Pubblicità
Il mio iltempo24.it
Bari Palese, Italia (16270): Temperatura & dewpoint: 19.03.2019 20:00:00 - 25.03.2019 20:00:00 (CET)Bari Palese, Italia (16270): velocità del vento: 19.03.2019 20:00:00 - 25.03.2019 20:00:00 (CET)Bari Palese, Italia (16270): direzione del vento: 19.03.2019 20:00:00 - 25.03.2019 20:00:00 (CET)Bari Palese, Italia (16270): reduced air pressure: 19.03.2019 20:00:00 - 25.03.2019 20:00:00 (CET)Bari Palese, Italia (16270): visibility: 19.03.2019 20:00:00 - 25.03.2019 20:00:00 (CET)Bari Palese, Italia (16270): precipitazioni: 19.03.2019 20:00:00 - 25.03.2019 20:00:00 (CET)
Data & Tempo tt [°C] td [°C] ff [km/h] ff [kn] dd ppp [hPa] vv [km] rr [mm]
25.03.2019 20:00:00 - - - - - - - -
25.03.2019 19:00:00 15,5 5,9 8 4 OSO 1009,4 11 -
25.03.2019 18:00:00 - - - - - - - -
25.03.2019 17:00:00 - - - - - - - -
25.03.2019 16:00:00 18,3 5,2 13 7 E 1010,4 11 0,0
25.03.2019 15:00:00 - - - - - - - -
25.03.2019 14:00:00 - - - - - - - -
25.03.2019 13:00:00 19,2 5,5 11 6 E 1012,8 25 -
25.03.2019 12:00:00 - - - - - - - -
25.03.2019 11:00:00 - - - - - - - -
25.03.2019 10:00:00 18,5 4,2 8 4 E 1014,6 25 0,0
25.03.2019 09:00:00 - - - - - - - -
25.03.2019 08:00:00 - - - - - - - -
25.03.2019 07:00:00 8,7 5,2 4 2 SSE 1015,6 30 -
25.03.2019 06:00:00 - - - - - - - -
25.03.2019 05:00:00 - - - - - - - -
25.03.2019 04:00:00 10,0 5,1 9 5 SSO 1016,0 30 0,0
25.03.2019 03:00:00 - - - - - - - -
25.03.2019 02:00:00 - - - - - - - -
25.03.2019 01:00:00 10,4 5,6 5 3 OSO 1017,3 30 -
25.03.2019 00:00:00 - - - - - - - -
24.03.2019 23:00:00 - - - - - - - -
24.03.2019 22:00:00 11,0 6,6 9 5 SO 1018,5 16 0,0
24.03.2019 21:00:00 - - - - - - - -
24.03.2019 20:00:00 - - - - - - - -
24.03.2019 19:00:00 11,6 10,0 4 2 SSE 1019,0 15 -
24.03.2019 18:00:00 - - - - - - - -
24.03.2019 17:00:00 - - - - - - - -
24.03.2019 16:00:00 16,9 6,8 9 5 E 1019,5 13 0,0
24.03.2019 15:00:00 - - - - - - - -
24.03.2019 14:00:00 - - - - - - - -
24.03.2019 13:00:00 17,7 6,5 9 5 E 1021,4 30 -
24.03.2019 12:00:00 - - - - - - - -
24.03.2019 11:00:00 - - - - - - - -
24.03.2019 10:00:00 17,8 4,4 4 2 N 1022,0 30 0,0
24.03.2019 09:00:00 - - - - - - - -
24.03.2019 08:00:00 - - - - - - - -
24.03.2019 07:00:00 9,7 2,5 5 3 SO 1021,9 - -
24.03.2019 06:00:00 - - - - - - - -
24.03.2019 05:00:00 - - - - - - - -
24.03.2019 04:00:00 10,0 1,3 11 6 O 1020,8 - 0,0
24.03.2019 03:00:00 - - - - - - - -
24.03.2019 02:00:00 - - - - - - - -
24.03.2019 01:00:00 7,9 2,8 4 2 ONO 1021,6 11 -
24.03.2019 00:00:00 - - - - - - - -
23.03.2019 23:00:00 - - - - - - - -
23.03.2019 22:00:00 8,9 5,2 4 2 NO 1022,1 12 0,0
23.03.2019 21:00:00 - - - - - - - -
23.03.2019 20:00:00 - - - - - - - -
23.03.2019 19:00:00 12,4 7,1 8 4 O 1021,1 11 -
23.03.2019 18:00:00 - - - - - - - -
23.03.2019 17:00:00 - - - - - - - -
23.03.2019 16:00:00 15,6 7,9 13 7 N 1021,4 13 0,0
23.03.2019 15:00:00 - - - - - - - -
23.03.2019 14:00:00 - - - - - - - -
23.03.2019 13:00:00 16,1 4,7 18 10 NNE 1022,7 11 -
23.03.2019 12:00:00 - - - - - - - -
23.03.2019 11:00:00 - - - - - - - -
23.03.2019 10:00:00 14,6 4,7 15 8 N 1023,5 11 0,0
23.03.2019 09:00:00 - - - - - - - -
23.03.2019 08:00:00 - - - - - - - -
23.03.2019 07:00:00 8,0 3,6 8 4 O 1023,2 20 -
23.03.2019 06:00:00 - - - - - - - -
23.03.2019 05:00:00 - - - - - - - -
23.03.2019 04:00:00 6,5 4,2 4 2 O 1023,0 20 0,0
23.03.2019 03:00:00 - - - - - - - -
23.03.2019 02:00:00 - - - - - - - -
23.03.2019 01:00:00 7,2 4,5 8 4 O 1023,7 20 -
23.03.2019 00:00:00 - - - - - - - -
22.03.2019 23:00:00 - - - - - - - -
22.03.2019 22:00:00 8,7 7,1 5 3 O 1024,8 - 0,0
22.03.2019 21:00:00 - - - - - - - -
22.03.2019 20:00:00 - - - - - - - -
22.03.2019 19:00:00 11,7 8,8 8 4 ONO 1024,8 20 -
22.03.2019 18:00:00 - - - - - - - -
22.03.2019 17:00:00 - - - - - - - -
22.03.2019 16:00:00 14,8 10,4 15 8 N 1025,3 - 0,0
22.03.2019 15:00:00 - - - - - - - -
22.03.2019 14:00:00 - - - - - - - -
22.03.2019 13:00:00 15,5 8,6 16 9 N 1026,9 11 -
22.03.2019 12:00:00 - - - - - - - -
22.03.2019 11:00:00 - - - - - - - -
22.03.2019 10:00:00 13,4 7,3 16 9 N 1027,8 11 0,0
22.03.2019 09:00:00 - - - - - - - -
22.03.2019 08:00:00 - - - - - - - -
22.03.2019 07:00:00 8,1 5,7 9 5 NO 1027,5 6 -
22.03.2019 06:00:00 - - - - - - - -
22.03.2019 05:00:00 - - - - - - - -
22.03.2019 04:00:00 6,9 5,1 9 5 O 1026,7 18 0,0
22.03.2019 03:00:00 - - - - - - - -
22.03.2019 02:00:00 - - - - - - - -
22.03.2019 01:00:00 7,4 5,8 8 4 O 1027,3 18 -
22.03.2019 00:00:00 - - - - - - - -
21.03.2019 23:00:00 - - - - - - - -
21.03.2019 22:00:00 9,2 7,5 9 5 OSO 1027,6 20 0,0
21.03.2019 21:00:00 - - - - - - - -
21.03.2019 20:00:00 - - - - - - - -
21.03.2019 19:00:00 12,4 7,7 16 9 NNO 1026,6 20 -
21.03.2019 18:00:00 - - - - - - - -
21.03.2019 17:00:00 - - - - - - - -
21.03.2019 16:00:00 14,1 8,8 24 13 N 1025,8 20 0,0
21.03.2019 15:00:00 - - - - - - - -
21.03.2019 14:00:00 - - - - - - - -
21.03.2019 13:00:00 14,8 9,4 22 12 N 1027,2 13 -
21.03.2019 12:00:00 - - - - - - - -
21.03.2019 11:00:00 - - - - - - - -
21.03.2019 10:00:00 13,5 6,1 21 11 N 1027,6 15 0,0
21.03.2019 09:00:00 - - - - - - - -
21.03.2019 08:00:00 - - - - - - - -
21.03.2019 07:00:00 7,0 4,2 11 6 ONO 1026,5 11 -
21.03.2019 06:00:00 - - - - - - - -
21.03.2019 05:00:00 - - - - - - - -
21.03.2019 04:00:00 6,4 3,7 8 4 ONO 1025,7 - 0,0
21.03.2019 03:00:00 - - - - - - - -
21.03.2019 02:00:00 - - - - - - - -
21.03.2019 01:00:00 7,5 4,2 13 7 O 1026,0 11 -
21.03.2019 00:00:00 - - - - - - - -
20.03.2019 23:00:00 - - - - - - - -
20.03.2019 22:00:00 8,1 5,4 9 5 ONO 1026,0 16 0,0
20.03.2019 21:00:00 - - - - - - - -
20.03.2019 20:00:00 - - - - - - - -
20.03.2019 19:00:00 10,1 7,0 15 8 ONO 1024,8 16 -
20.03.2019 18:00:00 - - - - - - - -
20.03.2019 17:00:00 - - - - - - - -
20.03.2019 16:00:00 12,6 8,2 21 11 NNO 1023,9 14 0,0
20.03.2019 15:00:00 - - - - - - - -
20.03.2019 14:00:00 - - - - - - - -
20.03.2019 13:00:00 12,3 9,2 18 10 NNO 1023,7 10 -
20.03.2019 12:00:00 - - - - - - - -
20.03.2019 11:00:00 - - - - - - - -
20.03.2019 10:00:00 10,8 9,1 16 9 ONO 1023,9 10 0,0
20.03.2019 09:00:00 - - - - - - - -
20.03.2019 08:00:00 - - - - - - - -
20.03.2019 07:00:00 9,1 8,6 9 5 O 1022,7 6 -
20.03.2019 06:00:00 - - - - - - - -
20.03.2019 05:00:00 - - - - - - - -
20.03.2019 04:00:00 9,6 8,5 11 6 O 1022,0 - 0,0
20.03.2019 03:00:00 - - - - - - - -
20.03.2019 02:00:00 - - - - - - - -
20.03.2019 01:00:00 10,3 8,9 8 4 ONO 1021,8 - -
20.03.2019 00:00:00 - - - - - - - -
19.03.2019 23:00:00 - - - - - - - -
19.03.2019 22:00:00 11,5 7,3 15 8 NNO 1021,3 10 0,0
19.03.2019 21:00:00 - - - - - - - -
19.03.2019 20:00:00 - - - - - - - -

tt = Temperatura
td = dewpoint
ff = velocità del vento
dd = direzione del vento
ppp = reduced air pressure
vv = visibility
rr = precipitazioni

Stazioni seguenti

WeatherPro
AMSI
MeteoEarth